Location: Eastchurch
(51.4000°N, 0.8667°E)
Time: 23:23:24
(UTC+00:00)

Cosmos 1302 Rocket - Pass Details

Date: 19 January 2026
Orbit: 752 x 772 km, 74.0° (Epoch: 7 February)

Event Time Altitude Azimuth Distance (km) Brightness Sun altitude
Rises 17:48:08 0° 191° (S) 3,225 7.6 -12.8°
Reaches altitude 10° 17:50:31 10° 188° (S) 2,306 6.8 -13.1°
Maximum altitude 17:55:40 61° 109° (ESE) 876 4.0 -13.9°
Enters shadow 18:00:38 11° 31° (NNE) 2,238 6.0 -14.7°
